This is the latest recevied weather packets stored in our database for station/object N7NMS-13. If no packets are shown the sender has not sent any weather packets the latest 1 day(s).
| Time | Temp. | Humidity | Pressure | Rain* | Wind** | Luminosity | Snow |
|---|---|---|---|---|---|---|---|
| 1778034052 | 17.22° C | 66% | - | 0 mm | 0 m/s | - | - |
| 1778033452 | 17.22° C | 64% | - | 0 mm | 0 m/s | - | - |
| 1778032852 | 16.67° C | 63% | - | 0 mm | 0 m/s | - | - |
| 1778032251 | 17.22° C | 64% | - | 0 mm | 0 m/s | - | - |
| 1778031651 | 17.22° C | 63% | - | 0 mm | 0 m/s | - | - |
| 1778031051 | 17.78° C | 62% | - | 0 mm | 0 m/s | - | - |
| 1778030451 | 17.78° C | 62% | - | 0 mm | 0 m/s | - | - |
| 1778029851 | 17.22° C | 61% | - | 0 mm | 0 m/s | - | - |
| 1778029250 | 17.78° C | 60% | - | 0 mm | 0 m/s | - | - |
| 1778028650 | 18.33° C | 59% | - | 0 mm | 0 m/s | - | - |
| 1778028050 | 19.44° C | 57% | - | 0 mm | 0 m/s | - | - |
| 1778027450 | 19.44° C | 52% | - | 0 mm | 0 m/s | - | - |
| 1778026850 | 20.56° C | 49% | - | 0 mm | 0 m/s | - | - |
| 1778026250 | 21.67° C | 47% | - | 0 mm | 0 m/s | - | - |
| 1778025649 | 21.67° C | 45% | - | 0 mm | 0 m/s | - | - |
| 1778025049 | 22.22° C | 44% | - | 0 mm | 0 m/s | - | - |
| 1778024449 | 22.78° C | 43% | - | 0 mm | 1.34 m/s, 197° | - | - |
| 1778023849 | 22.22° C | 43% | - | 0 mm | 0 m/s | - | - |
| 1778023249 | 22.22° C | 43% | - | 0 mm | 0 m/s | - | - |
| 1778022649 | 22.78° C | 42% | - | 0 mm | 0.45 m/s, 180° | - | - |
| 1778022049 | 22.78° C | 41% | - | 0 mm | 0.89 m/s, 190° | - | - |
| 1778021418 | 22.78° C | 41% | - | 0 mm | 0.45 m/s, 211° | - | - |
| 1778020818 | 23.33° C | 40% | - | 0 mm | 0.89 m/s, 204° | - | - |
| 1778020218 | 22.22° C | 40% | - | 0 mm | 1.79 m/s, 202° | - | - |
| 1778019618 | 23.33° C | 40% | - | 0 mm | 0.89 m/s, 169° | - | - |
* Rain latest hour (hover to see other rain measurements)
** Current wind speed in m/s (hover to see current wind gust speed)